Flag for Canada Weather past 2 weeks in St. John's, Newfoundland and Labrador, Canada

Now
63 °F

Passing clouds.


Feels Like: 63 °F
Forecast: 54 / 65 °F
Wind: No wind

Location: St. John's

Current Time: Aug 4, 2015 at 8:18:23 AM

Latest Report: Aug 4, 2015 at 7:30 AM


Visibility: 15 mi

Pressure: 30.09 "Hg

Humidity: 83%

Dew point: 57 °F

Location of St. John'sLocation

Historic Weather in St. John's — Graph

°F

St. John's temperature yesterday

Maximum temperature yesterday: 77 °F (at 2:30 PM)
Minimum temperature yesterday: 55 °F (at 5:30 AM)
Average temperature yesterday: 66 °F

Past Weeks' High & Low Weather Summary

 TemperatureHumidityPressure
High81 °F (Aug 2, 3:30 PM)100% (Jul 20, 10:30 PM)30.24 "Hg (Jul 20, 10:30 PM)
Low43 °F (Jul 25, 3:30 AM)51% (Aug 2, 5:30 PM)29.26 "Hg (Jul 23, 11:30 AM)
Average53 °F92%29.91 "Hg
* Reported Jul 20 6:30 AM — Aug 4 6:30 AM, St. John's, Weather by CustomWeather, © 2015

Note: Actual official high and low records may vary slightly from our data, if they occured in-between our weather recording intervals... More about our weather records

Advertising

St. John's weather history for previous 24 hours

 ConditionsComfort  
Time TempWeatherWind HumidityBarometerVisibility
6:30 AM
Tue, Aug 4
59 °FPassing clouds.7 mph88%30.07 "Hg15 mi
5:30 AM55 °FPassing clouds.6 mph94%30.06 "Hg15 mi
4:30 AM55 °FPassing clouds.5 mph100%30.05 "Hg15 mi
3:30 AM59 °FClear.9 mph88%30.04 "Hg15 mi
2:30 AM61 °FPassing clouds.8 mph83%30.04 "Hg15 mi
1:30 AM61 °FPassing clouds.13 mph88%30.03 "Hg15 mi
12:30 AM63 °FPassing clouds.14 mph83%30.01 "Hg15 mi
11:30 PM
Mon, Aug 3
63 °FPassing clouds.14 mph83%30.00 "Hg15 mi
10:30 PM64 °FPassing clouds.13 mph78%30.00 "Hg15 mi
9:30 PM68 °FPassing clouds.16 mph69%29.97 "Hg15 mi
8:30 PM70 °FPartly sunny.15 mph64%29.95 "Hg15 mi
7:30 PM73 °FPartly sunny.13 mph57%29.94 "Hg15 mi
6:30 PM75 °FPartly sunny.14 mph54%29.93 "Hg15 mi
5:30 PM77 °FPartly sunny.16 mph51%29.93 "Hg15 mi
4:30 PM75 °FScattered clouds.17 mph54%29.93 "Hg15 mi
3:30 PM75 °FScattered clouds.18 mph57%29.91 "Hg15 mi
2:30 PM77 °FPartly sunny.21 mph54%29.91 "Hg15 mi
1:30 PM73 °FPartly sunny.18 mph57%29.91 "Hg15 mi
12:30 PM73 °FPartly sunny.22 mph53%29.90 "Hg15 mi
11:30 AM72 °FScattered clouds.21 mph65%29.91 "Hg15 mi
10:30 AM70 °FScattered clouds.17 mph69%29.90 "Hg15 mi
9:30 AM66 °FScattered clouds.14 mph73%29.90 "Hg15 mi
8:30 AM63 °FPassing clouds.15 mph83%29.88 "Hg15 mi
Weather by CustomWeather, © 2015

See weather overviewHow to use our weather pages